"2010-01-18 00:00:00",1601560,1.849,301.5,5.91,0.537,8.04,102.9653,6.869,8.03,29.66,0,110,13.42,7.64,263.5
"2010-01-18 00:00:30",1601561,2.558,301.5,8.02,1.253,8.92,102.9679,6.876,7.927,29.41,0,110,13.42,7.65,263.5
"2010-01-18 00:01:00",1601562,2.882,302.8,7.635,1.353,9.98,102.9714,6.885,8.06,29.36,0,110,13.42,7.66,264.8
"2010-01-18 00:01:30",1601563,2.932,298.2,5.683,1.259,9.88,102.9723,6.887,8.12,29.3,0,110,13.42,7.66,260.2
"2010-01-18 00:02:00",1601564,3.163,297.2,6.151,1.262,10.84,102.9752,6.894,8.19,29.48,0,110,13.42,7.67,259.2
"2010-01-18 00:02:30",1601565,1.806,285.8,6.473,0.774,7.842,102.9778,6.901,7.889,29.76,0,110,13.42,7.68,247.8
"2010-01-18 00:03:00",1601566,1.637,280.9,2.121,0.079,7.04,102.9793,6.905,7.916,30.04,0,110,13.46,7.68,242.9
"2010-01-18 00:03:30",1601567,2.746,293,8.99,1.208,9.25,102.9798,6.906,8.04,30.25,0,110,13.42,7.68,255.0
"2010-01-18 00:04:00",1601568,1.672,287,4.844,0.065,7.286,102.9828,6.914,7.942,30.19,0,110,13.46,7.69,249.0
"2010-01-18 00:04:30",1601569,2.829,295.9,6.711,1.28,9.72,102.9816,6.911,8.04,30.31,0,110,13.43,7.69,257.9
"2010-01-18 00:05:00",1601570,2.078,294.9,8.63,0.92,8.66,102.9828,6.914,8.08,30.38,0,110,13.43,7.69,256.9
"2010-01-18 00:05:30",1601571,1.869,302.5,5.744,0.856,7.969,102.9828,6.914,7.957,30.51,0,110,13.43,7.69,264.5
"2010-01-18 00:06:00",1601572,3.6,304.4,8.74,1.11,11.28,102.983,6.914,8.18,30.68,0,110,13.43,7.69,266.4
"2010-01-18 00:06:30",1601573,2.21,298.1,3.763,1.336,9.28,102.983,6.914,8.05,30.23,0,110,13.43,7.69,260.1
"2010-01-18 00:07:00",1601574,1.175,299.2,4.186,0.079,7.084,102.983,6.914,7.922,29.53,0,110,13.47,7.69,261.2
"2010-01-18 00:07:30",1601575,1.311,310.7,2.569,0.057,6.969,102.983,6.914,7.915,29.09,0,110,13.47,7.69,272.7
"2010-01-18 00:08:00",1601576,2.427,315.2,4.719,1.287,9.28,102.983,6.914,8.07,29.06,0,110,13.44,7.69,277.2
"2010-01-18 00:08:30",1601577,1.265,306.5,1.296,0.042,7.443,102.983,6.914,7.999,28.65,0,110,13.47,7.69,268.5
"2010-01-18 00:09:00",1601578,2.558,312.6,7.074,1.262,9.89,102.983,6.914,8.01,28.33,0,110,13.44,7.69,274.6
"2010-01-18 00:09:30",1601579,1.33,297.6,2.688,0.058,7.437,102.983,6.914,7.984,28.17,0,110,13.47,7.69,259.6
"2010-01-18 00:10:00",1601580,1.568,300.2,8.01,0.93,8.44,102.983,6.914,8.06,28.42,0,110,13.44,7.69,262.2
"2010-01-18 00:10:30",1601581,2.863,309.6,8.27,1.065,10.81,102.983,6.914,8.13,28.43,0,110,13.44,7.69,271.6
"2010-01-18 00:11:00",1601582,1.715,296,7.68,1.065,8.28,102.983,6.914,8.04,28.18,0,110,13.44,7.69,258.0
"2010-01-18 00:11:30",1601583,1.39,298.3,3.795,0.125,7.038,102.983,6.914,7.923,27.89,0,110,13.47,7.69,260.3
"2010-01-18 00:12:00",1601584,1.464,302.3,4.837,0.081,6.845,102.983,6.914,7.927,27.8,0,110,13.48,7.69,264.3
"2010-01-18 00:12:30",1601585,1.688,300,7.249,0.927,7.583,102.983,6.914,7.924,27.71,0,110,13.44,7.69,262.0
"2010-01-18 00:13:00",1601586,2.81,300,5.392,1.315,10.67,102.983,6.914,8.16,27.76,0,110,13.44,7.69,262.0
"2010-01-18 00:13:30",1601587,1.942,295.7,15.56,1.063,9.25,102.983,6.914,8.13,27.59,0,110,13.44,7.69,257.7
"2010-01-18 00:14:00",1601588,1.395,312.8,5.321,1.073,7.661,102.983,6.914,7.941,27.48,0,110,13.44,7.69,274.8
"2010-01-18 00:14:30",1601589,1.612,313.8,8.85,1.174,8.7,102.9833,6.915,8.09,27.69,0,110,13.44,7.69,275.8
"2010-01-18 00:15:00",1601590,1.213,322.5,7.631,1.018,7.722,102.9836,6.916,8.05,27.72,0,110,13.44,7.69,284.5
"2010-01-18 00:15:30",1601591,2.085,322.3,9.17,1.292,9.79,102.983,6.914,8.1,27.81,0,110,13.44,7.69,284.3
"2010-01-18 00:16:00",1601592,0.932,332.3,7.019,1.025,7.29,102.983,6.914,7.942,27.67,0,110,13.44,7.69,294.3
"2010-01-18 00:16:30",1601593,0.338,320.2,7.503,0.16,6.623,102.983,6.914,7.941,27.63,0,110,13.47,7.69,282.2
"2010-01-18 00:17:00",1601594,0.425,316.5,4.709,0.062,6.642,102.983,6.914,7.933,27.67,0,110,13.47,7.69,278.5
"2010-01-18 00:17:30",1601595,0.526,323.8,3.638,0.068,6.836,102.983,6.914,7.938,27.72,0,110,13.47,7.69,285.8
"2010-01-18 00:18:00",1601596,0.871,337.8,10.41,0.825,7.997,102.983,6.914,8.08,28.09,0,110,13.44,7.69,299.8
"2010-01-18 00:18:30",1601597,2.192,350.8,11.77,1.271,10.73,102.9836,6.916,8.18,28.46,0,110,13.44,7.69,312.8
"2010-01-18 00:19:00",1601598,1.879,343.5,12.1,1.284,9.79,102.9833,6.915,8.07,28.51,0,110,13.44,7.69,305.5
"2010-01-18 00:19:30",1601599,0.902,332,6.904,0.432,7.093,102.9839,6.916,7.929,28.41,0,110,13.44,7.69,294.0
"2010-01-18 00:20:00",1601600,1.271,342.9,22.28,1.019,8.92,102.9842,6.917,8.07,28.54,0,110,13.44,7.69,304.9
"2010-01-18 00:20:30",1601601,0.45,45.48,22.8,0.614,6.57,102.9851,6.919,7.934,29.02,0,110,13.44,7.70,7.5
"2010-01-18 00:21:00",1601602,0.478,55.49,11.05,0.111,6.246,102.9842,6.917,7.938,29.63,0,110,13.48,7.69,17.5
"2010-01-18 00:21:30",1601603,1.049,61.97,12.26,0.872,6.67,102.986,6.922,8.01,30.17,0,110,13.45,7.70,24.0
"2010-01-18 00:22:00",1601604,2.375,82.8,9.78,1.34,9.08,102.9892,6.93,8.05,30.4,0,110,13.45,7.71,44.8
"2010-01-18 00:22:30",1601605,1.48,80.3,8.13,0.666,6.708,102.9883,6.928,7.918,30.38,0,110,13.45,7.70,42.3
"2010-01-18 00:23:00",1601606,1.873,91.4,5.151,1.052,8.58,102.9906,6.934,8.07,30.7,0,110,13.45,7.71,53.4
"2010-01-18 00:23:30",1601607,3.163,94.2,5.753,1.252,10.48,102.9892,6.93,8.16,30.93,0,110,13.45,7.71,56.2
"2010-01-18 00:24:00",1601608,3.035,95.3,6.747,1.255,9.74,102.9844,6.918,7.973,30.75,0,110,13.45,7.69,57.3
"2010-01-18 00:24:30",1601609,1.877,89.3,1.217,0.047,7.271,102.9757,6.895,7.967,31.06,0,110,13.48,7.67,51.3
"2010-01-18 00:25:00",1601610,3.435,96.4,5.503,1.26,9.16,102.9734,6.89,7.995,31.34,0,110,13.45,7.67,58.4
"2010-01-18 00:25:30",1601611,3.278,95.6,6.384,1.225,8.48,102.9658,6.87,8.13,32.38,0,110,13.45,7.65,57.6
"2010-01-18 00:26:00",1601612,3.751,96.4,5.785,1.125,8.02,102.9605,6.857,7.922,33.04,0,110,13.45,7.63,58.4
"2010-01-18 00:26:30",1601613,3.378,93.8,4.454,0.916,7.514,102.959,6.853,7.974,33.67,0,110,13.45,7.63,55.8
"2010-01-18 00:27:00",1601614,4.925,101.3,6.23,1.147,10.74,102.9585,6.851,8.16,34.25,0,110,13.45,7.63,63.3
"2010-01-18 00:27:30",1601615,5.039,102.3,6.511,1.208,10.09,102.9619,6.86,8.04,34.53,0,110,13.45,7.64,64.3
"2010-01-18 00:28:00",1601616,3.559,94,4.307,0.888,7.414,102.9614,6.859,7.881,34.62,0,110,13.45,7.63,56.0
"2010-01-18 00:28:30",1601617,3.652,94.4,5.235,1.06,7.741,102.9625,6.862,8.01,34.66,0,110,13.45,7.64,56.4
"2010-01-18 00:29:00",1601618,4.224,96.7,6.227,1.268,9.05,102.9487,6.826,8.08,34.81,0,110,13.45,7.60,58.7
"2010-01-18 00:29:30",1601619,4.386,99.7,6.412,1.279,9.33,102.9347,6.791,8,34.92,0,110,13.45,7.57,61.7
"2010-01-18 00:30:00",1601620,3.858,98.9,6.438,1.067,8.17,102.9336,6.788,7.948,35.67,0,110,13.45,7.56,60.9
"2010-01-18 00:30:30",1601621,4.527,106.2,6.932,1.269,10.02,102.9353,6.792,8.1,36.42,0,110,13.45,7.57,68.2
"2010-01-18 00:31:00",1601622,4.578,106.1,6.511,1.29,9.59,102.9359,6.794,8,36.68,0,110,13.45,7.57,68.1
"2010-01-18 00:31:30",1601623,3.248,104.3,2.676,0.088,6.732,102.9376,6.798,7.83,36.75,0,110,13.48,7.57,66.3
"2010-01-18 00:32:00",1601624,4.444,116.6,8.29,1.251,8.77,102.9357,6.793,8.03,39.23,0,110,13.45,7.57,78.6
"2010-01-18 00:32:30",1601625,4.377,114.2,6.579,1.278,9.07,102.9227,6.76,7.983,39.84,0,110,13.44,7.54,76.2
"2010-01-18 00:33:00",1601626,4.28,116,7.647,1.184,9.27,102.9081,6.723,7.978,39.38,0,110,13.44,7.50,78.0
"2010-01-18 00:33:30",1601627,4.669,120.6,5.46,1.277,9.35,102.9075,6.721,7.995,39.97,0,110,13.44,7.50,82.6
"2010-01-18 00:34:00",1601628,4.88,123,8.79,1.212,10.14,102.9084,6.723,8.03,40.06,0,110,13.44,7.50,85.0
"2010-01-18 00:34:30",1601629,3.898,124.1,7.748,1.15,8.12,102.9067,6.719,7.865,40.47,0,110,13.44,7.49,86.1
"2010-01-18 00:35:00",1601630,4.346,125.7,8.67,1.243,7.913,102.8864,6.667,7.772,40.74,0,110,13.44,7.44,87.7
"2010-01-18 00:35:30",1601631,4.882,131,6.116,1.169,9.76,102.8762,6.641,7.927,41.08,0,110,13.44,7.42,93.0
"2010-01-18 00:36:00",1601632,5.2,134.2,5.764,1.058,10.83,102.8771,6.644,7.947,41.27,0,110,13.44,7.42,96.2
"2010-01-18 00:36:30",1601633,4.37,125.5,5.37,1.279,8.64,102.8788,6.648,7.782,40.98,0,110,13.44,7.42,87.5
"2010-01-18 00:37:00",1601634,5.297,127.5,7.038,1.336,10.07,102.874,6.636,7.94,40.88,0,110,13.45,7.41,89.5
"2010-01-18 00:37:30",1601635,5.198,125,4.957,1.283,9.66,102.8478,6.569,7.885,40.87,0,110,13.45,7.34,87.0
"2010-01-18 00:38:00",1601636,3.819,116.9,3.169,0.685,7.425,102.8467,6.566,7.683,40.42,0,110,13.45,7.34,78.9
"2010-01-18 00:38:30",1601637,4.925,123.5,6.944,1.206,9.91,102.8484,6.57,7.772,40.56,0,110,13.45,7.35,85.5
"2010-01-18 00:39:00",1601638,4.85,110.4,9.34,1.148,10.73,102.8453,6.562,7.795,39.54,0,110,13.45,7.34,72.4
"2010-01-18 00:39:30",1601639,2.408,99.3,4.166,0.179,7.506,102.8258,6.512,7.593,37.74,0,110,13.49,7.29,61.3
"2010-01-18 00:40:00",1601640,3.107,112.4,8.16,0.999,7.859,102.8148,6.484,7.678,36.85,0,110,13.45,7.26,74.4
"2010-01-18 00:40:30",1601641,4.544,117.3,14.15,1.131,10.67,102.8139,6.482,7.794,37.99,0,110,13.45,7.26,79.3
"2010-01-18 00:41:00",1601642,2.969,114.9,9.08,0.844,7.844,102.8145,6.484,7.702,37.81,0,110,13.45,7.26,76.9
"2010-01-18 00:41:30",1601643,2.405,107.4,7.177,0.351,6.889,102.8145,6.484,7.541,39.25,0,110,13.49,7.26,69.4
"2010-01-18 00:42:00",1601644,3.522,111.8,7.409,1.34,9.41,102.8145,6.484,7.682,39.01,0,110,13.45,7.26,73.8
"2010-01-18 00:42:30",1601645,4.059,116.9,6.053,1.071,11.25,102.8145,6.484,7.742,37.64,0,110,13.45,7.26,78.9
"2010-01-18 00:43:00",1601646,2.585,112.5,5.288,0.922,8.2,102.8145,6.484,7.664,36.84,0,110,13.46,7.26,74.5
"2010-01-18 00:43:30",1601647,3.695,114.9,9.05,1.364,8.29,102.8145,6.484,7.511,37.52,0,110,13.45,7.26,76.9
"2010-01-18 00:44:00",1601648,4.456,111.9,7.022,1.318,10.03,102.8145,6.484,7.741,38.4,0,110,13.45,7.26,73.9
"2010-01-18 00:44:30",1601649,5.325,115.8,6.404,1.15,10.84,102.8145,6.484,7.708,38.76,0,110,13.46,7.26,77.8
"2010-01-18 00:45:00",1601650,4.535,115,3.299,0.765,7.612,102.8145,6.484,7.494,39.24,0,110,13.46,7.26,77.0
"2010-01-18 00:45:30",1601651,5.327,123.7,6.725,1.204,9.37,102.8145,6.484,7.736,40.13,0,110,13.46,7.26,85.7
"2010-01-18 00:46:00",1601652,6.052,130.8,6.455,1.074,10.65,102.8145,6.484,7.708,40.08,0,110,13.46,7.26,92.8
"2010-01-18 00:46:30",1601653,4.226,121.4,4.93,0.637,8.15,102.8145,6.484,7.577,39.97,0,110,13.46,7.26,83.4
"2010-01-18 00:47:00",1601654,5.64,132.8,6.231,1.073,10.92,102.8142,6.483,7.654,39.59,0,110,13.46,7.26,94.8
"2010-01-18 00:47:30",1601655,5.83,140.1,6.463,1.129,10.75,102.8145,6.484,7.74,39.25,0,110,13.46,7.26,102.1
"2010-01-18 00:48:00",1601656,5.281,135.8,6.031,1.191,8.59,102.8145,6.484,7.509,38.2,0,110,13.46,7.26,97.8
"2010-01-18 00:48:30",1601657,5.878,137,7.909,1.306,9.4,102.8145,6.484,7.579,37.2,0,110,13.46,7.26,99.0
"2010-01-18 00:49:00",1601658,6.409,142,6.034,1.096,10.86,102.8137,6.481,7.709,37.09,0,110,13.46,7.26,104.0
"2010-01-18 00:49:30",1601659,5.902,137.4,6.46,1.26,9.7,102.8108,6.474,7.59,36.82,0,109.9,13.46,7.25,99.4
"2010-01-18 00:50:00",1601660,6.036,138.3,7.104,1.251,9.75,102.8106,6.474,7.647,36.34,0,109.9,13.45,7.25,100.3
"2010-01-18 00:50:30",1601661,6.237,140.4,6.715,1.241,9.74,102.8097,6.471,7.685,36.21,0,109.9,13.45,7.25,102.4
"2010-01-18 00:51:00",1601662,5.461,137.1,5.094,0.892,8.31,102.8066,6.463,7.623,36.46,0,109.9,13.45,7.24,99.1
"2010-01-18 00:51:30",1601663,6.263,143.5,6.882,1.295,9.88,102.7953,6.435,7.715,36.66,0,109.9,13.45,7.21,105.5
"2010-01-18 00:52:00",1601664,6.974,145.3,6.22,1.248,10.25,102.784,6.406,7.676,36.81,0,109.9,13.45,7.18,107.3
"2010-01-18 00:52:30",1601665,6.763,147,6.346,1.25,10.03,102.7809,6.398,7.652,36.61,0,110,13.45,7.17,109.0
"2010-01-18 00:53:00",1601666,6.963,149.5,6.046,1.209,10.66,102.7806,6.397,7.697,36.77,0,109.9,13.45,7.17,111.5
"2010-01-18 00:53:30",1601667,7.053,148.2,7.504,1.272,10.46,102.7806,6.397,7.655,36.92,0,109.9,13.46,7.17,110.2
"2010-01-18 00:54:00",1601668,5.654,145,5.874,1.042,7.806,102.7806,6.397,7.544,36.8,0,109.9,13.46,7.17,107.0
"2010-01-18 00:54:30",1601669,5.877,150.5,5.97,1.329,8.97,102.7806,6.397,7.478,36.31,0,110,13.46,7.17,112.5
"2010-01-18 00:55:00",1601670,6.645,153.2,6.719,1.079,11.02,102.7806,6.397,7.618,36.24,0,109.9,13.46,7.17,115.2
"2010-01-18 00:55:30",1601671,6.077,151,5.999,1.306,10.14,102.7803,6.396,7.565,36.09,0,109.9,13.46,7.17,113.0
"2010-01-18 00:56:00",1601672,6.56,150.3,7.662,1.043,10.41,102.7749,6.383,7.636,36.11,0,109.9,13.46,7.16,112.3
"2010-01-18 00:56:30",1601673,6.826,155,7,1.334,9.72,102.7701,6.37,7.541,35.63,0,109.9,13.46,7.14,117.0
"2010-01-18 00:57:00",1601674,6.12,149.8,5.631,1.035,7.897,102.7625,6.351,7.541,35.51,0,109.9,13.46,7.12,111.8
"2010-01-18 00:57:30",1601675,6.665,153.8,6.802,1.194,9.09,102.7495,6.318,7.511,35.36,0,109.9,13.46,7.09,115.8
"2010-01-18 00:58:00",1601676,7.014,152.9,6.784,1.266,9.46,102.7467,6.31,7.556,35.66,0,109.9,13.46,7.08,114.9
"2010-01-18 00:58:30",1601677,6.953,157.2,6.99,1.244,10.26,102.7467,6.31,7.556,35.38,0,110,13.46,7.08,119.2
"2010-01-18 00:59:00",1601678,7.445,161.3,5.573,1.239,10.8,102.7467,6.31,7.656,35.48,0,109.9,13.46,7.08,123.3
"2010-01-18 00:59:30",1601679,6.392,154.3,6.579,1.284,8.8,102.7467,6.31,7.573,35.41,0,109.9,13.46,7.08,116.3
"2010-01-18 01:00:00",1601680,7.451,158.9,5.104,1.126,10.26,102.7467,6.31,7.503,35.48,0,109.9,13.46,7.08,120.9
"2010-01-18 01:00:30",1601681,6.25,152.4,5.057,0.973,8.07,102.7467,6.31,7.487,35.31,0,109.9,13.46,7.08,114.4
"2010-01-18 01:01:00",1601682,7.243,157.6,5.956,1.119,9.43,102.7467,6.31,7.384,34.73,0,109.9,13.46,7.08,119.6
"2010-01-18 01:01:30",1601683,7.718,160.4,6.705,1.263,10.49,102.7464,6.31,7.591,33.62,0,109.9,13.46,7.08,122.4
"2010-01-18 01:02:00",1601684,8.35,163,3.82,0.801,11.7,102.7419,6.298,7.644,32.83,0,110,13.46,7.07,125.0
"2010-01-18 01:02:30",1601685,7.471,159.9,5.979,1.21,10.26,102.7311,6.271,7.538,32.51,0,109.9,13.46,7.04,121.9
"2010-01-18 01:03:00",1601686,6.36,152.5,6.316,1.173,7.99,102.7148,6.229,7.344,32.17,0,109.9,13.46,7.00,114.5
"2010-01-18 01:03:30",1601687,6.398,155.8,5.966,1.261,8.71,102.7128,6.224,7.423,32.93,0,109.9,13.46,7.00,117.8
"2010-01-18 01:04:00",1601688,5.817,152.5,5.501,1.088,7.772,102.7128,6.224,7.348,33.38,0,109.9,13.46,7.00,114.5
"2010-01-18 01:04:30",1601689,7.064,158,6.028,1.08,10.32,102.7128,6.224,7.527,34.3,0,109.9,13.46,7.00,120.0
"2010-01-18 01:05:00",1601690,7.341,159.8,3.663,0.697,11.55,102.7128,6.224,7.611,34.89,0,109.9,13.46,7.00,121.8
"2010-01-18 01:05:30",1601691,6.239,151.4,6.659,1.231,9.06,102.7128,6.224,7.419,35.06,0,109.9,13.46,7.00,113.4
"2010-01-18 01:06:00",1601692,5.443,148.8,4.883,1.113,7.739,102.7128,6.224,7.397,34.45,0,109.9,13.46,7.00,110.8
"2010-01-18 01:06:30",1601693,5.572,151.2,6.49,1.152,8.52,102.7122,6.222,7.368,34.48,0,109.9,13.46,7.00,113.2
"2010-01-18 01:07:00",1601694,5.087,148.2,0.908,0.096,6.829,102.7057,6.206,7.246,32.64,0,109.9,13.49,6.98,110.2
"2010-01-18 01:07:30",1601695,6.194,156.5,7.855,1.166,9.73,102.6879,6.16,7.479,32.05,0,109.9,13.46,6.93,118.5
"2010-01-18 01:08:00",1601696,7.181,161.6,3.415,0.711,11.69,102.6806,6.141,7.55,29.91,0,109.9,13.46,6.92,123.6
"2010-01-18 01:08:30",1601697,6.081,155.2,7.002,1.299,9.81,102.6789,6.137,7.449,28.39,0,109.9,13.46,6.91,117.2
"2010-01-18 01:09:00",1601698,5.437,151.1,6.12,1.132,8.42,102.6789,6.137,7.378,28.04,0,109.9,13.46,6.91,113.1
"2010-01-18 01:09:30",1601699,5.315,147,6.613,1.17,7.659,102.6789,6.137,7.254,28.43,0,109.9,13.46,6.91,109.0
"2010-01-18 01:10:00",1601700,4.317,144.4,4.104,0.485,7.313,102.6789,6.137,7.3,29.59,0,109.9,13.47,6.91,106.4
"2010-01-18 01:10:30",1601701,5.196,147.8,5.99,1.389,8.85,102.6789,6.137,7.316,30.96,0,109.9,13.46,6.91,109.8
"2010-01-18 01:11:00",1601702,5.81,154.3,5.602,1.115,10.62,102.6786,6.136,7.462,31.38,0,109.9,13.47,6.91,116.3
"2010-01-18 01:11:30",1601703,5.553,152,6.237,1.19,10.47,102.6735,6.123,7.408,32.14,0,109.9,13.47,6.90,114.0
"2010-01-18 01:12:00",1601704,5.026,143.7,6.881,1.267,8.61,102.6659,6.104,7.385,32.73,0,109.9,13.47,6.88,105.7
"2010-01-18 01:12:30",1601705,4.819,145.5,5.265,1.325,8.54,102.6608,6.091,7.23,32.54,0,109.9,13.47,6.86,107.5
"2010-01-18 01:13:00",1601706,3.816,144.4,6.3,0.949,7.727,102.6534,6.072,7.328,33.43,0,109.9,13.47,6.85,106.4
"2010-01-18 01:13:30",1601707,4.242,145.3,6.439,1.28,7.791,102.645,6.05,7.156,33.36,0,109.9,13.47,6.82,107.3
"2010-01-18 01:14:00",1601708,4.686,147.5,6.857,1.325,9.44,102.645,6.05,7.344,34.65,0,109.9,13.47,6.82,109.5
"2010-01-18 01:14:30",1601709,5.15,148.9,6.402,1.063,10.26,102.645,6.05,7.366,35.58,0,109.9,13.47,6.82,110.9
"2010-01-18 01:15:00",1601710,4.885,145.5,5.946,1.237,9.64,102.645,6.05,7.385,34.5,0,109.9,13.47,6.82,107.5
"2010-01-18 01:15:30",1601711,3.989,139.2,7.41,1.054,8,102.645,6.05,7.278,34.1,0,109.9,13.47,6.82,101.2
"2010-01-18 01:16:00",1601712,3.815,142.2,5.109,1.105,7.286,102.6441,6.048,7.104,34.33,0,109.9,13.47,6.82,104.2
"2010-01-18 01:16:30",1601713,3.77,140.1,4.86,1.001,7.025,102.6348,6.024,7.115,35.13,0,109.9,13.47,6.80,102.1
"2010-01-18 01:17:00",1601714,4.782,145.2,6.797,1.224,9.59,102.6167,5.978,7.255,34.92,0,109.9,13.47,6.75,107.2
"2010-01-18 01:17:30",1601715,4.762,148.3,7.814,1.212,9.49,102.6116,5.965,7.214,35.12,0,109.9,13.47,6.74,110.3
"2010-01-18 01:18:00",1601716,4.654,147.2,5.244,1.317,9.4,102.6119,5.966,7.285,35.5,0,109.9,13.47,6.74,109.2
"2010-01-18 01:18:30",1601717,4.263,147.1,7.384,1.203,9.09,102.6113,5.965,7.257,35.57,0,109.9,13.47,6.74,109.1
"2010-01-18 01:19:00",1601718,3.953,144.8,6.684,1.19,8.32,102.6125,5.968,7.178,35.66,0,109.9,13.47,6.74,106.8
"2010-01-18 01:19:30",1601719,3.037,135.4,1.695,0.085,6.18,102.6113,5.965,7.086,36.04,0,109.9,13.51,6.74,97.4
"2010-01-18 01:20:00",1601720,4.172,141.1,6.546,1.304,8.56,102.6055,5.95,7.114,36.06,0,109.9,13.47,6.72,103.1
"2010-01-18 01:20:30",1601721,4.182,142.6,6.515,1.275,9.01,102.5945,5.921,7.215,36.69,0,109.9,13.47,6.69,104.6
"2010-01-18 01:21:00",1601722,4.937,146.4,6.477,1.166,9.75,102.5823,5.89,7.172,36.16,0,109.9,13.47,6.66,108.4
"2010-01-18 01:21:30",1601723,4.799,146.8,6.219,1.261,9.76,102.5826,5.891,7.181,35.82,0,109.9,13.47,6.66,108.8
"2010-01-18 01:22:00",1601724,4.744,147.7,6.357,1.239,9.35,102.5847,5.896,7.154,35.48,0,109.9,13.47,6.67,109.7
"2010-01-18 01:22:30",1601725,3.41,138.9,3.244,0.627,6.787,102.585,5.897,6.987,35.34,0,109.9,13.47,6.67,100.9
"2010-01-18 01:23:00",1601726,3.519,139.7,3.247,0.79,6.635,102.581,5.887,7.047,35.43,0,109.9,13.47,6.66,101.7
"2010-01-18 01:23:30",1601727,5.315,150.9,5.101,0.973,10.46,102.5639,5.843,7.113,35.92,0,109.9,13.47,6.62,112.9
"2010-01-18 01:24:00",1601728,3.896,143.7,5.756,1.123,8.21,102.5545,5.819,7.067,36.18,0,109.9,13.47,6.59,105.7
"2010-01-18 01:24:30",1601729,5.007,147.5,6.523,1.15,9.61,102.5592,5.831,7.126,36.69,0,109.9,13.47,6.60,109.5
"2010-01-18 01:25:00",1601730,5.131,147.9,6.248,1.203,9.94,102.5586,5.83,7.157,36.46,0,109.9,13.47,6.60,109.9
"2010-01-18 01:25:30",1601731,4.165,141.6,5.774,1.107,7.673,102.558,5.828,7.034,36.45,0,109.9,13.47,6.60,103.6
"2010-01-18 01:26:00",1601732,4.655,145,5.686,1.301,8.4,102.5581,5.829,7.042,37.22,0,109.9,13.47,6.60,107.0
"2010-01-18 01:26:30",1601733,3.764,137.6,4.329,0.779,6.911,102.5454,5.796,6.992,37.69,0,109.9,13.47,6.57,99.6
"2010-01-18 01:27:00",1601734,4.74,142,7.157,1.372,8.74,102.5313,5.76,6.964,38.57,0,109.9,13.47,6.53,104.0
"2010-01-18 01:27:30",1601735,4.253,141.3,6.519,1.236,8.78,102.5322,5.762,7.026,39.37,0,109.9,13.48,6.53,103.3
"2010-01-18 01:28:00",1601736,4.862,143.7,6.79,1.272,9.27,102.5342,5.768,7.072,39.35,0,109.9,13.48,6.54,105.7
"2010-01-18 01:28:30",1601737,5.107,143.7,6.022,1.172,9.7,102.5348,5.769,7.031,39.34,0,109.9,13.48,6.54,105.7
"2010-01-18 01:29:00",1601738,3.531,136.3,3.653,0.62,6.91,102.5281,5.752,6.931,39.74,0,109.9,13.48,6.52,98.3
"2010-01-18 01:29:30",1601739,4.479,132.4,14.1,1.482,8.4,102.5101,5.706,6.864,40.22,0,109.9,13.48,6.48,94.4
"2010-01-18 01:30:00",1601740,4.643,117,5.799,1.302,8.97,102.5052,5.694,7.028,42.02,0,109.9,13.48,6.47,79.0
"2010-01-18 01:30:30",1601741,3.246,115,3.921,0.911,6.744,102.5073,5.699,6.855,42.7,0,109.9,13.48,6.47,77.0
"2010-01-18 01:31:00",1601742,4.399,115.4,6.96,1.187,9.12,102.5081,5.701,6.975,43.26,0,109.9,13.48,6.47,77.4
"2010-01-18 01:31:30",1601743,4.714,119.5,8.89,1.071,9.43,102.498,5.675,6.985,43.42,0,109.9,13.48,6.45,81.5
"2010-01-18 01:32:00",1601744,3.507,131.1,4.067,1.143,7.526,102.4777,5.623,6.849,43.3,0,109.9,13.48,6.39,93.1
"2010-01-18 01:32:30",1601745,3.776,138.2,6.989,1.219,7.691,102.476,5.619,6.764,42.83,0,109.9,13.48,6.39,100.2
"2010-01-18 01:33:00",1601746,3.953,134.4,6.501,1.256,9.08,102.476,5.619,6.971,42.53,0,109.9,13.48,6.39,96.4
"2010-01-18 01:33:30",1601747,3.366,127.9,7.201,1.257,7.392,102.4652,5.591,6.713,42.43,0,109.9,13.48,6.36,89.9
"2010-01-18 01:34:00",1601748,3.249,134.4,6.599,1.249,8.2,102.444,5.537,6.745,42.89,0,109.9,13.48,6.31,96.4
"2010-01-18 01:34:30",1601749,3.815,138.3,6.655,1.207,9.27,102.4423,5.533,6.831,43.17,0,109.9,13.48,6.30,100.3
"2010-01-18 01:35:00",1601750,3.883,140.4,5.982,1.213,9.33,102.4423,5.533,6.83,43.3,0,109.9,13.48,6.30,102.4
"2010-01-18 01:35:30",1601751,2.343,131.8,0.617,0.234,6.113,102.4423,5.533,6.588,42.96,0,109.9,13.48,6.30,93.8
"2010-01-18 01:36:00",1601752,3.297,138.9,7.136,1.243,8.14,102.4372,5.52,6.718,43.07,0,109.9,13.48,6.29,100.9
"2010-01-18 01:36:30",1601753,3.487,138.9,7.311,1.245,7.694,102.42,5.476,6.621,42.96,0,109.9,13.48,6.25,100.9
"2010-01-18 01:37:00",1601754,2.857,140.6,6.162,1.071,7.314,102.4084,5.446,6.678,43.24,0,109.9,13.48,6.22,102.6
"2010-01-18 01:37:30",1601755,3.844,144.7,6.491,1.217,8.6,102.4084,5.446,6.579,43.44,0,109.9,13.48,6.22,106.7
"2010-01-18 01:38:00",1601756,3.841,144.3,6.01,1.164,9.43,102.4084,5.446,6.714,43.61,0,109.9,13.48,6.22,106.3
"2010-01-18 01:38:30",1601757,3.017,140,6.067,1.134,7.84,102.4076,5.444,6.652,43.55,0,109.9,13.48,6.22,102.0
"2010-01-18 01:39:00",1601758,2.461,136.2,4.503,0.784,6.985,102.3979,5.419,6.707,43.55,0,109.9,13.48,6.19,98.2
"2010-01-18 01:39:30",1601759,3.067,137.1,7.644,1.261,7.361,102.3767,5.365,6.489,43.17,0,109.9,13.48,6.14,99.1
"2010-01-18 01:40:00",1601760,3.077,138.9,6.624,1.224,8.2,102.3745,5.36,6.757,43.45,0,109.9,13.48,6.13,100.9
"2010-01-18 01:40:30",1601761,2.588,140.4,4.697,1.055,6.882,102.3745,5.36,6.534,43.28,0,109.9,13.48,6.13,102.4
"2010-01-18 01:41:00",1601762,3.126,138.9,6.424,1.222,8.02,102.3745,5.36,6.517,43.24,0,109.9,13.48,6.13,100.9
"2010-01-18 01:41:30",1601763,3.579,146.1,8.2,1.265,9.1,102.3745,5.36,6.672,43.3,0,109.9,13.48,6.13,108.1
"2010-01-18 01:42:00",1601764,3.814,150.8,7.745,1.29,9.2,102.37,5.348,6.646,42.82,0,109.9,13.48,6.12,112.8
"2010-01-18 01:42:30",1601765,3.246,146.4,6.818,1.293,7.867,102.3488,5.294,6.556,42.93,0,109.9,13.48,6.06,108.4
"2010-01-18 01:43:00",1601766,3.246,146.3,7.935,1.236,7.507,102.3414,5.275,6.406,42.56,0,109.9,13.49,6.05,108.3
"2010-01-18 01:43:30",1601767,2.67,147.8,5.062,0.9,7.089,102.3406,5.273,6.586,43.08,0,109.9,13.49,6.04,109.8
"2010-01-18 01:44:00",1601768,3.366,152.1,6.712,1.301,7.863,102.3406,5.273,6.408,42.59,0,109.9,13.49,6.04,114.1
"2010-01-18 01:44:30",1601769,2.875,148,5.299,0.993,7.253,102.3406,5.273,6.557,42.66,0,109.9,13.5,6.04,110.0
"2010-01-18 01:45:00",1601770,4.077,155.1,6.701,1.201,9.36,102.3406,5.273,6.513,42.64,0,109.9,13.5,6.04,117.1
"2010-01-18 01:45:30",1601771,3.951,157,6.794,1.232,9.08,102.3394,5.27,6.446,42.41,0,109.9,13.5,6.04,119.0
"2010-01-18 01:46:00",1601772,3.268,149.5,5.206,1.243,7.91,102.3284,5.242,6.354,42.63,0,109.9,13.5,6.01,111.5
"2010-01-18 01:46:30",1601773,2.653,150.4,6.265,0.987,7.333,102.3129,5.202,6.464,42.95,0,109.9,13.5,5.97,112.4
"2010-01-18 01:47:00",1601774,3.194,151.8,6.557,1.212,7.643,102.3066,5.186,6.387,42.77,0,109.9,13.5,5.96,113.8
"2010-01-18 01:47:30",1601775,3.045,148.7,7.837,1.191,7.816,102.3066,5.186,6.441,42.87,0,109.9,13.5,5.96,110.7
"2010-01-18 01:48:00",1601776,2.319,148.3,4.074,0.435,6.051,102.3066,5.186,6.361,43.16,0,109.9,13.5,5.96,110.3
"2010-01-18 01:48:30",1601777,3.965,157.9,6.889,1.274,8.65,102.3066,5.186,6.39,43.09,0,109.8,13.5,5.96,119.9
"2010-01-18 01:49:00",1601778,3.157,149.5,7.489,1.351,7.777,102.3066,5.186,6.292,43.22,0,109.9,13.5,5.96,111.5
"2010-01-18 01:49:30",1601779,3.852,156.3,8.47,1.382,9.38,102.3066,5.186,6.509,43.54,0,109.8,13.5,5.96,118.3